{"data":{"norad_id":47802,"epoch":"2026-09-19T20:08:24.495360Z","epoch_age_seconds":82771,"freshness":"FRESH","line1":"1 47802U 21018R   26262.83917240 -.00001246  00000+0 -28388-4 0  9992","line2":"2 47802  53.1587  72.3173 0000628  68.1818 291.9250 15.31707247306298","mean_motion":15.31707247,"eccentricity":6.28e-5,"inclination_deg":53.1587,"raan_deg":72.3173,"arg_perigee_deg":68.1818,"mean_anomaly_deg":291.925,"bstar":-2.8388e-5,"rev_number":30629,"period_min":94.012743154436,"perigee_km":470.28828426228,"apogee_km":471.14850049957,"semimajor_km":6848.8553923809,"source":"CELESTRAK","updated_at":"2026-09-20T09:00:38.746860Z"}}